User: anonymous
Location: Unspecified
(0.0000°N, 0.0000°E)
Time: 06:55:38
(UTC+00:00)
Language:

COSMOS 2468 - Orbit

View from above orbital plane
View from above orbital plane
View from above satellite
View from above satellite

Ground track
Ground track

The orbit data is extracted from the following two-line orbital elements,

1 37154U 10043C   14243.73163061  .00000029  00000-0  13625-3 0  2375
2 37154 082.4584 238.5412 0014667 006.4084 353.7177 12.42887999180533
Epoch (UTC): 31 August 2014 17:33:32
Eccentricity: 0.0014667
inclination: 82.4584°
perigee height: 1483 km
apogee height: 1506 km
right ascension of ascending node: 238.5412°
argument of perigee: 6.4084°
revolutions per day: 12.42887999
mean anomaly at epoch: 353.7177°
orbit number at epoch: 18053

The dashed part of the orbit path shows where the satellite is in the earth's shadow,  

DLR